,,,PA_Meas_PMT16A,,PR_Meas_QMR101_102,,RH_Meas_QMH101,,SR_Meas_QMS101,,TA_Meas_QMH101,,GenWind,,GenWind,
date,time,status,PA,status,PR,status,RH,status,SR,status,TA,status,DirAvg,status,SpdAvg,
2009-04-09, 00:00:04,VALID,1000.31,VALID,0,VALID,92.1658,VALID,0,VALID,24.5422,VALID,152,VALID,1.28086,
2009-04-09, 00:01:04,VALID,1000.35,VALID,0,VALID,91.9369,VALID,0,VALID,24.5422,VALID,152,VALID,1.20977,
2009-04-09, 00:02:04,VALID,1000.35,VALID,0,VALID,91.8988,VALID,0,VALID,24.5636,VALID,145,VALID,1.18945,
2009-04-09, 00:03:04,VALID,1000.34,VALID,0,VALID,91.8072,VALID,0,VALID,24.5422,VALID,147,VALID,1.04844,
2009-04-09, 00:04:04,VALID,1000.34,VALID,0,VALID,91.792,VALID,0,VALID,24.5813,VALID,148,VALID,0.888281,
2009-04-09, 00:05:04,VALID,1000.28,VALID,0,VALID,91.7843,VALID,0,VALID,24.6222,VALID,148,VALID,0.473047,
2009-04-09, 00:06:04,VALID,1000.28,VALID,0,VALID,91.4257,VALID,0,VALID,24.5813,VALID,163,VALID,0.895703,
2009-04-09, 00:07:04,VALID,1000.24,VALID,0,VALID,91.2503,VALID,0,VALID,24.6184,VALID,160,VALID,0.736719,
2009-04-09, 00:08:04,VALID,1000.23,VALID,0,VALID,91.2045,VALID,0,VALID,24.6184,VALID,149,VALID,0.732031,
2009-04-09, 00:09:04,VALID,1000.19,VALID,0,VALID,91.174,VALID,0,VALID,24.6184,VALID,132,VALID,0.758594,
2009-04-09, 00:10:04,VALID,1000.17,VALID,0,VALID,90.968,VALID,0,VALID,24.638,VALID,136,VALID,1.06133,
2009-04-09, 00:11:04,VALID,1000.16,VALID,0,VALID,91.0061,VALID,0,VALID,24.677,VALID,140,VALID,0.809375,
2009-04-09, 00:12:04,VALID,1000.13,VALID,0,VALID,90.9832,VALID,0.112286,VALID,24.677,VALID,140,VALID,0.392969,
2009-04-09, 00:13:04,VALID,1000.12,VALID,0,VALID,90.9298,VALID,0,VALID,24.677,VALID,146,VALID,0.377734,
2009-04-09, 00:14:04,VALID,1000.09,VALID,0,VALID,90.8306,VALID,0,VALID,24.6575,VALID,146,VALID,0.369531,
2009-04-09, 00:15:04,VALID,1000.13,VALID,0,VALID,90.968,VALID,0,VALID,24.6575,VALID,146,VALID,0.242578,
2009-04-09, 00:16:04,VALID,1000.09,VALID,0,VALID,90.9832,VALID,0.112286,VALID,24.677,VALID,143,VALID,0.407813,
2009-04-09, 00:17:04,VALID,1000.08,VALID,0,VALID,90.9832,VALID,0,VALID,24.6575,VALID,114,VALID,0.482031,
2009-04-09, 00:18:04,VALID,1000.08,VALID,0,VALID,91.0824,VALID,0,VALID,24.677,VALID,114,VALID,0.397266,
2009-04-09, 00:19:04,VALID,1000.03,VALID,0,VALID,91.2121,VALID,0,VALID,24.6965,VALID,113,VALID,0.402344,
2009-04-09, 00:20:04,VALID,1000.05,VALID,0,VALID,91.3037,VALID,0,VALID,24.677,VALID,99,VALID,0.347266,
2009-04-09, 00:21:04,VALID,1000.04,VALID,0,VALID,91.3189,VALID,0,VALID,24.6575,VALID,99,VALID,0.0492188,
2009-04-09, 00:22:04,VALID,1000.01,VALID,0,VALID,91.3494,VALID,0.112286,VALID,24.6575,VALID,99,VALID,0.209766,
2009-04-09, 00:23:04,VALID,999.994,VALID,0,VALID,91.4257,VALID,0.112286,VALID,24.6575,VALID,99,VALID,0,
2009-04-09, 00:24:04,VALID,999.955,VALID,0,VALID,91.5249,VALID,0,VALID,24.6575,VALID,99,VALID,0,
2009-04-09, 00:25:04,VALID,999.968,VALID,0,VALID,91.5249,VALID,0.112286,VALID,24.638,VALID,99,VALID,0,
2009-04-09, 00:26:04,VALID,999.948,VALID,0,VALID,91.4944,VALID,0.112286,VALID,24.638,VALID,99,VALID,0,
2009-04-09, 00:27:04,VALID,999.909,VALID,0,VALID,91.5631,VALID,0,VALID,24.638,VALID,99,VALID,0,
2009-04-09, 00:28:04,VALID,999.897,VALID,0,VALID,91.5783,VALID,0,VALID,24.6184,VALID,99,VALID,0,
2009-04-09, 00:29:04,VALID,999.881,VALID,0,VALID,91.5478,VALID,0.112286,VALID,24.5989,VALID,99,VALID,0,
2009-04-09, 00:30:04,VALID,999.852,VALID,0,VALID,91.6317,VALID,0.112286,VALID,24.5989,VALID,99,VALID,0,
2009-04-09, 00:31:04,VALID,999.852,VALID,0,VALID,91.5402,VALID,0,VALID,24.558,VALID,99,VALID,0,
2009-04-09, 00:32:04,VALID,999.825,VALID,0,VALID,91.6088,VALID,0,VALID,24.5794,VALID,99,VALID,0,
2009-04-09, 00:33:04,VALID,999.836,VALID,0,VALID,91.7004,VALID,0,VALID,24.5989,VALID,99,VALID,0,
2009-04-09, 00:34:04,VALID,999.804,VALID,0,VALID,91.9293,VALID,0,VALID,24.5971,VALID,99,VALID,0.009375,
2009-04-09, 00:35:04,VALID,999.821,VALID,0,VALID,92.1506,VALID,0,VALID,24.6184,VALID,99,VALID,0.178906,
2009-04-09, 00:36:04,VALID,999.796,VALID,0,VALID,92.1887,VALID,0.112286,VALID,24.638,VALID,99,VALID,0.566016,
2009-04-09, 00:37:04,VALID,999.812,VALID,0,VALID,92.2116,VALID,0,VALID,24.638,VALID,72,VALID,0.634375,
2009-04-09, 00:38:04,VALID,999.772,VALID,0,VALID,91.9522,VALID,0.112286,VALID,24.6184,VALID,60,VALID,0.838672,
2009-04-09, 00:39:04,VALID,999.772,VALID,0,VALID,91.8835,VALID,0,VALID,24.6184,VALID,71,VALID,0.809375,
2009-04-09, 00:40:04,VALID,999.778,VALID,0,VALID,91.6775,VALID,0.112286,VALID,24.5989,VALID,76,VALID,0.825781,
2009-04-09, 00:41:04,VALID,999.769,VALID,0,VALID,91.6241,VALID,0,VALID,24.5971,VALID,77,VALID,0.802344,
2009-04-09, 00:42:04,VALID,999.756,VALID,0,VALID,91.7462,VALID,0,VALID,24.638,VALID,77,VALID,0.844141,
2009-04-09, 00:43:04,VALID,999.762,VALID,0,VALID,91.5936,VALID,0.112286,VALID,24.6575,VALID,77,VALID,0.988672,
2009-04-09, 00:44:04,VALID,999.747,VALID,0,VALID,91.6394,VALID,0,VALID,24.677,VALID,74,VALID,0.828516,
2009-04-09, 00:45:04,VALID,999.801,VALID,0,VALID,91.5554,VALID,0,VALID,24.677,VALID,72,VALID,0.691797,
2009-04-09, 00:46:04,VALID,999.762,VALID,0,VALID,91.4791,VALID,0.112286,VALID,24.6556,VALID,49,VALID,0.792578,
2009-04-09, 00:47:04,VALID,999.769,VALID,0,VALID,91.4257,VALID,0.112286,VALID,24.677,VALID,37,VALID,0.867969,
2009-04-09, 00:48:04,VALID,999.757,VALID,0,VALID,91.502,VALID,0,VALID,24.6575,VALID,27,VALID,0.91875,
2009-04-09, 00:49:04,VALID,999.773,VALID,0,VALID,91.647,VALID,0.112286,VALID,24.6556,VALID,27,VALID,0.799609,
2009-04-09, 00:50:04,VALID,999.77,VALID,0,VALID,91.8377,VALID,0,VALID,24.6575,VALID,28,VALID,0.881641,
2009-04-09, 00:51:04,VALID,999.764,VALID,0,VALID,91.9751,VALID,0,VALID,24.6575,VALID,37,VALID,1.00859,
2009-04-09, 00:52:04,VALID,999.773,VALID,0,VALID,92.0819,VALID,0,VALID,24.6789,VALID,47,VALID,0.950781,
2009-04-09, 00:53:04,VALID,999.732,VALID,0,VALID,92.0132,VALID,0,VALID,24.6789,VALID,49,VALID,0.971094,
2009-04-09, 00:54:04,VALID,999.766,VALID,0,VALID,91.9445,VALID,0,VALID,24.6575,VALID,52,VALID,0.816016,
2009-04-09, 00:55:04,VALID,999.738,VALID,0,VALID,91.9522,VALID,0,VALID,24.6594,VALID,64,VALID,0.794141,
2009-04-09, 00:56:04,VALID,999.718,VALID,0,VALID,91.6241,VALID,0,VALID,24.6398,VALID,60,VALID,1.01914,
2009-04-09, 00:57:04,VALID,999.715,VALID,0,VALID,91.6699,VALID,0,VALID,24.6594,VALID,61,VALID,0.697266,
2009-04-09, 00:58:04,VALID,999.669,VALID,0,VALID,91.7004,VALID,0,VALID,24.6594,VALID,60,VALID,0.440234,
2009-04-09, 00:59:04,VALID,999.638,VALID,0,VALID,91.6088,VALID,0,VALID,24.6789,VALID,60,VALID,0.389062,
2009-04-09, 01:00:04,VALID,999.623,VALID,0,VALID,91.6088,VALID,0,VALID,24.6789,VALID,60,VALID,0.0015625,
2009-04-09, 01:01:04,VALID,999.592,VALID,0,VALID,91.5936,VALID,0,VALID,24.6789,VALID,60,VALID,0.0914062,
2009-04-09, 01:02:04,VALID,999.541,VALID,0,VALID,91.6088,VALID,0,VALID,24.6789,VALID,60,VALID,0,
2009-04-09, 01:03:04,VALID,999.584,VALID,0,VALID,91.6012,VALID,0,VALID,24.6789,VALID,60,VALID,0,
2009-04-09, 01:04:04,VALID,999.57,VALID,0,VALID,91.5783,VALID,0,VALID,24.6594,VALID,60,VALID,0,
2009-04-09, 01:05:04,VALID,999.583,VALID,0,VALID,91.647,VALID,0,VALID,24.6594,VALID,60,VALID,0.128516,
2009-04-09, 01:06:04,VALID,999.579,VALID,0,VALID,91.7157,VALID,0,VALID,24.6594,VALID,60,VALID,0.312109,
2009-04-09, 01:07:04,VALID,999.616,VALID,0,VALID,91.7157,VALID,0,VALID,24.6594,VALID,60,VALID,0.284375,
2009-04-09, 01:08:04,VALID,999.635,VALID,0,VALID,91.8072,VALID,0,VALID,24.6575,VALID,60,VALID,0.18125,
2009-04-09, 01:09:04,VALID,999.632,VALID,0,VALID,91.8454,VALID,0,VALID,24.6789,VALID,60,VALID,0.162891,
2009-04-09, 01:10:04,VALID,999.65,VALID,0,VALID,91.6394,VALID,0,VALID,24.6575,VALID,60,VALID,0.348047,
2009-04-09, 01:11:04,VALID,999.624,VALID,0,VALID,91.296,VALID,0,VALID,24.638,VALID,60,VALID,0.403125,
2009-04-09, 01:12:04,VALID,999.62,VALID,0,VALID,91.1968,VALID,0,VALID,24.6594,VALID,60,VALID,0.466406,
2009-04-09, 01:13:04,VALID,999.616,VALID,0,VALID,91.0748,VALID,0,VALID,24.638,VALID,60,VALID,0.414844,
2009-04-09, 01:14:04,VALID,999.637,VALID,0,VALID,91.0519,VALID,0,VALID,24.6575,VALID,60,VALID,0.433203,
2009-04-09, 01:15:04,VALID,999.59,VALID,0,VALID,90.9909,VALID,0,VALID,24.6984,VALID,60,VALID,0.278125,
2009-04-09, 01:16:04,VALID,999.581,VALID,0,VALID,91.0366,VALID,0,VALID,24.6984,VALID,60,VALID,0.177344,
2009-04-09, 01:17:04,VALID,999.56,VALID,0,VALID,91.0977,VALID,0,VALID,24.6984,VALID,60,VALID,0,
2009-04-09, 01:18:04,VALID,999.53,VALID,0,VALID,91.1053,VALID,0,VALID,24.7179,VALID,60,VALID,0,
2009-04-09, 01:19:04,VALID,999.49,VALID,0,VALID,91.1663,VALID,0,VALID,24.6984,VALID,60,VALID,0,
2009-04-09, 01:20:04,VALID,999.457,VALID,0,VALID,91.174,VALID,0,VALID,24.6789,VALID,60,VALID,0,
2009-04-09, 01:21:04,VALID,999.464,VALID,0,VALID,91.235,VALID,0,VALID,24.6789,VALID,60,VALID,0,
2009-04-09, 01:22:04,VALID,999.459,VALID,0,VALID,91.2731,VALID,0,VALID,24.6789,VALID,60,VALID,0.0660156,
2009-04-09, 01:23:04,VALID,999.47,VALID,0,VALID,91.174,VALID,0,VALID,24.638,VALID,60,VALID,0.422656,
2009-04-09, 01:24:04,VALID,999.508,VALID,0,VALID,91.2579,VALID,0,VALID,24.6184,VALID,56,VALID,0.635156,
2009-04-09, 01:25:04,VALID,999.497,VALID,0,VALID,91.3037,VALID,0,VALID,24.6594,VALID,51,VALID,0.707031,
2009-04-09, 01:26:04,VALID,999.479,VALID,0,VALID,91.38,VALID,0,VALID,24.6594,VALID,52,VALID,0.587891,
2009-04-09, 01:27:04,VALID,999.439,VALID,0,VALID,91.4639,VALID,0,VALID,24.6594,VALID,52,VALID,0.429688,
2009-04-09, 01:28:04,VALID,999.401,VALID,0,VALID,91.5097,VALID,0,VALID,24.6398,VALID,52,VALID,0.334766,
2009-04-09, 01:29:04,VALID,999.406,VALID,0,VALID,91.5554,VALID,0,VALID,24.5989,VALID,52,VALID,0.271484,
2009-04-09, 01:30:04,VALID,999.384,VALID,0,VALID,91.6165,VALID,0,VALID,24.6203,VALID,51,VALID,0.337891,
2009-04-09, 01:31:04,VALID,999.388,VALID,0,VALID,91.6699,VALID,0,VALID,24.6008,VALID,52,VALID,0.383594,
2009-04-09, 01:32:04,VALID,999.361,VALID,0,VALID,91.7614,VALID,0,VALID,24.5813,VALID,52,VALID,0.648828,
2009-04-09, 01:33:04,VALID,999.38,VALID,0,VALID,91.9293,VALID,0,VALID,24.5813,VALID,51,VALID,0.646875,
2009-04-09, 01:34:04,VALID,999.357,VALID,0,VALID,91.9369,VALID,0,VALID,24.5599,VALID,52,VALID,0.600391,
2009-04-09, 01:35:04,VALID,999.321,VALID,0,VALID,91.9598,VALID,0,VALID,24.5813,VALID,52,VALID,0.33125,
2009-04-09, 01:36:04,VALID,999.336,VALID,0,VALID,92.0209,VALID,0,VALID,24.5813,VALID,52,VALID,0.321094,
2009-04-09, 01:37:04,VALID,999.33,VALID,0,VALID,92.0361,VALID,0,VALID,24.5599,VALID,52,VALID,0.110156,
2009-04-09, 01:38:04,VALID,999.341,VALID,0,VALID,92.1429,VALID,0,VALID,24.5599,VALID,52,VALID,0.114063,
2009-04-09, 01:39:04,VALID,999.286,VALID,0,VALID,92.2192,VALID,0,VALID,24.5599,VALID,52,VALID,0.311719,
2009-04-09, 01:40:04,VALID,999.26,VALID,0,VALID,92.2955,VALID,0,VALID,24.5599,VALID,57,VALID,0.414063,
2009-04-09, 01:41:04,VALID,999.219,VALID,0,VALID,92.2726,VALID,0,VALID,24.5599,VALID,124,VALID,0.216797,
2009-04-09, 01:42:04,VALID,999.161,VALID,0,VALID,92.265,VALID,0,VALID,24.5794,VALID,124,VALID,0.466406,
2009-04-09, 01:43:04,VALID,999.15,VALID,0,VALID,92.2345,VALID,0,VALID,24.5599,VALID,124,VALID,0.691406,
2009-04-09, 01:44:04,VALID,999.169,VALID,0,VALID,92.1048,VALID,0,VALID,24.5794,VALID,125,VALID,0.746094,
2009-04-09, 01:45:04,VALID,999.162,VALID,0,VALID,91.9293,VALID,0,VALID,24.5599,VALID,131,VALID,0.989844,
2009-04-09, 01:46:04,VALID,999.195,VALID,0,VALID,91.8835,VALID,0,VALID,24.558,VALID,132,VALID,0.551953,
2009-04-09, 01:47:04,VALID,999.186,VALID,0,VALID,91.8606,VALID,0,VALID,24.558,VALID,153,VALID,0.801562,
2009-04-09, 01:48:04,VALID,999.199,VALID,0,VALID,91.7233,VALID,0,VALID,24.5404,VALID,146,VALID,0.769531,
2009-04-09, 01:49:04,VALID,999.195,VALID,0,VALID,91.853,VALID,0.112286,VALID,24.5599,VALID,138,VALID,0.605078,
2009-04-09, 01:50:04,VALID,999.22,VALID,0,VALID,91.8835,VALID,0,VALID,24.5599,VALID,143,VALID,0.496094,
2009-04-09, 01:51:04,VALID,999.18,VALID,0,VALID,91.9369,VALID,0,VALID,24.5385,VALID,142,VALID,0.360547,
2009-04-09, 01:52:04,VALID,999.179,VALID,0,VALID,92.0285,VALID,0,VALID,24.5599,VALID,132,VALID,0.268359,
2009-04-09, 01:53:04,VALID,999.173,VALID,0,VALID,92.0514,VALID,0,VALID,24.5599,VALID,132,VALID,0.469141,
2009-04-09, 01:54:04,VALID,999.169,VALID,0,VALID,92.12,VALID,0,VALID,24.5599,VALID,131,VALID,0.600391,
2009-04-09, 01:55:04,VALID,999.186,VALID,0,VALID,92.1429,VALID,0,VALID,24.558,VALID,128,VALID,0.45625,
2009-04-09, 01:56:04,VALID,999.179,VALID,0,VALID,92.2268,VALID,0,VALID,24.5599,VALID,128,VALID,0.641797,
2009-04-09, 01:57:04,VALID,999.142,VALID,0,VALID,92.2421,VALID,0,VALID,24.5599,VALID,127,VALID,0.458594,
2009-04-09, 01:58:04,VALID,999.143,VALID,0,VALID,92.2803,VALID,0,VALID,24.5599,VALID,138,VALID,0.799219,
2009-04-09, 01:59:04,VALID,999.1,VALID,0,VALID,92.3413,VALID,0,VALID,24.5599,VALID,140,VALID,0.509375,
2009-04-09, 02:00:04,VALID,999.107,VALID,0,VALID,92.3566,VALID,0,VALID,24.5404,VALID,143,VALID,0.588281,
2009-04-09, 02:01:04,VALID,999.102,VALID,0,VALID,92.41,VALID,0,VALID,24.5404,VALID,142,VALID,0.612891,
2009-04-09, 02:02:04,VALID,999.115,VALID,0,VALID,92.4481,VALID,0,VALID,24.5209,VALID,130,VALID,0.537891,
2009-04-09, 02:03:04,VALID,999.144,VALID,0,VALID,92.5168,VALID,0,VALID,24.4995,VALID,118,VALID,0.546094,
2009-04-09, 02:04:04,VALID,999.169,VALID,0,VALID,92.5473,VALID,0,VALID,24.4995,VALID,112,VALID,0.370703,
2009-04-09, 02:05:04,VALID,999.161,VALID,0,VALID,92.5626,VALID,0,VALID,24.5013,VALID,112,VALID,0.369531,
2009-04-09, 02:06:04,VALID,999.172,VALID,0,VALID,92.5702,VALID,0,VALID,24.4818,VALID,112,VALID,0.378125,
2009-04-09, 02:07:04,VALID,999.182,VALID,0,VALID,92.5931,VALID,0,VALID,24.4837,VALID,112,VALID,0.205859,
2009-04-09, 02:08:04,VALID,999.165,VALID,0,VALID,92.6083,VALID,0,VALID,24.4837,VALID,112,VALID,0.468359,
2009-04-09, 02:09:04,VALID,999.151,VALID,0,VALID,92.6312,VALID,0,VALID,24.4642,VALID,108,VALID,0.522266,
2009-04-09, 02:10:04,VALID,999.152,VALID,0,VALID,92.6083,VALID,0,VALID,24.4428,VALID,94,VALID,0.705469,
2009-04-09, 02:11:04,VALID,999.126,VALID,0,VALID,92.6312,VALID,0,VALID,24.4642,VALID,84,VALID,0.451562,
2009-04-09, 02:12:04,VALID,999.093,VALID,0,VALID,92.616,VALID,0,VALID,24.4642,VALID,82,VALID,0.417188,
2009-04-09, 02:13:04,VALID,999.09,VALID,0,VALID,92.5549,VALID,0,VALID,24.4642,VALID,69,VALID,0.392188,
2009-04-09, 02:14:04,VALID,999.142,VALID,0,VALID,92.5549,VALID,0,VALID,24.4233,VALID,30,VALID,0.76875,
2009-04-09, 02:15:04,VALID,999.137,VALID,0,VALID,92.4939,VALID,0,VALID,24.4446,VALID,27,VALID,0.872656,
2009-04-09, 02:16:04,VALID,999.169,VALID,0,VALID,92.4634,VALID,0,VALID,24.4251,VALID,27,VALID,0.705859,
2009-04-09, 02:17:04,VALID,999.218,VALID,0,VALID,92.4786,VALID,0,VALID,24.4251,VALID,27,VALID,0.7125,
2009-04-09, 02:18:04,VALID,999.233,VALID,0,VALID,92.4557,VALID,0,VALID,24.4251,VALID,27,VALID,0.773828,
2009-04-09, 02:19:04,VALID,999.232,VALID,0,VALID,92.4939,VALID,0,VALID,24.4251,VALID,28,VALID,0.771484,
2009-04-09, 02:20:04,VALID,999.253,VALID,0,VALID,92.6007,VALID,0,VALID,24.4251,VALID,41,VALID,0.583984,
2009-04-09, 02:21:04,VALID,999.267,VALID,0,VALID,92.6236,VALID,0,VALID,24.4446,VALID,41,VALID,0.556641,
2009-04-09, 02:22:04,VALID,999.256,VALID,0,VALID,92.6388,VALID,0,VALID,24.4428,VALID,41,VALID,0.363672,
2009-04-09, 02:23:04,VALID,999.26,VALID,0,VALID,92.6312,VALID,0,VALID,24.4604,VALID,41,VALID,0.333594,
2009-04-09, 02:24:04,VALID,999.247,VALID,0,VALID,92.5854,VALID,0,VALID,24.4818,VALID,41,VALID,0.147266,
2009-04-09, 02:25:04,VALID,999.264,VALID,0,VALID,92.5702,VALID,0,VALID,24.48,VALID,41,VALID,0.0988281,
2009-04-09, 02:26:04,VALID,999.218,VALID,0,VALID,92.5473,VALID,0,VALID,24.5013,VALID,41,VALID,0.0265625,
2009-04-09, 02:27:04,VALID,999.228,VALID,0,VALID,92.5244,VALID,0,VALID,24.5013,VALID,41,VALID,0.303906,
2009-04-09, 02:28:04,VALID,999.207,VALID,0,VALID,92.5244,VALID,0,VALID,24.5013,VALID,41,VALID,0.358594,
2009-04-09, 02:29:04,VALID,999.2,VALID,0,VALID,92.5626,VALID,0,VALID,24.5209,VALID,43,VALID,0.382813,
2009-04-09, 02:30:04,VALID,999.226,VALID,0,VALID,92.4405,VALID,0,VALID,24.5209,VALID,128,VALID,0.640234,
2009-04-09, 02:31:04,VALID,999.257,VALID,0,VALID,92.3871,VALID,0,VALID,24.5013,VALID,131,VALID,0.373828,
2009-04-09, 02:32:04,VALID,999.259,VALID,0,VALID,92.2879,VALID,0,VALID,24.5209,VALID,129,VALID,0.349609,
2009-04-09, 02:33:04,VALID,999.274,VALID,0,VALID,92.0819,VALID,0,VALID,24.5404,VALID,124,VALID,0.738672,
2009-04-09, 02:34:04,VALID,999.279,VALID,0,VALID,91.9827,VALID,0,VALID,24.5404,VALID,128,VALID,0.639063,
2009-04-09, 02:35:04,VALID,999.3,VALID,0,VALID,91.9522,VALID,0,VALID,24.5404,VALID,128,VALID,0.460938,
2009-04-09, 02:36:04,VALID,999.317,VALID,0,VALID,91.9369,VALID,0,VALID,24.5385,VALID,128,VALID,0.355078,
2009-04-09, 02:37:04,VALID,999.282,VALID,0,VALID,91.8301,VALID,0.112286,VALID,24.5599,VALID,114,VALID,0.833594,
2009-04-09, 02:38:04,VALID,999.307,VALID,0,VALID,91.6851,VALID,0,VALID,24.5599,VALID,128,VALID,0.892969,
2009-04-09, 02:39:04,VALID,999.282,VALID,0,VALID,91.6623,VALID,0,VALID,24.5599,VALID,111,VALID,0.780469,
2009-04-09, 02:40:04,VALID,999.241,VALID,0,VALID,91.6623,VALID,0,VALID,24.5794,VALID,110,VALID,0.735156,
2009-04-09, 02:41:04,VALID,999.228,VALID,0,VALID,91.647,VALID,0,VALID,24.5989,VALID,81,VALID,0.510156,
2009-04-09, 02:42:04,VALID,999.192,VALID,0,VALID,91.502,VALID,0,VALID,24.5794,VALID,97,VALID,0.555078,
2009-04-09, 02:43:04,VALID,999.158,VALID,0,VALID,91.4868,VALID,0,VALID,24.5794,VALID,17,VALID,0.101563,
2009-04-09, 02:44:04,VALID,999.12,VALID,0,VALID,91.4334,VALID,0,VALID,24.5599,VALID,17,VALID,0.246484,
2009-04-09, 02:45:04,VALID,999.1,VALID,0,VALID,91.4715,VALID,0,VALID,24.5599,VALID,17,VALID,0.373047,
2009-04-09, 02:46:04,VALID,999.067,VALID,0,VALID,91.4486,VALID,0,VALID,24.5794,VALID,10,VALID,0.222656,
2009-04-09, 02:47:04,VALID,999.024,VALID,0,VALID,91.4257,VALID,0,VALID,24.5599,VALID,10,VALID,0.218359,
2009-04-09, 02:48:04,VALID,998.999,VALID,0,VALID,91.4563,VALID,0,VALID,24.5599,VALID,10,VALID,0.105859,
2009-04-09, 02:49:04,VALID,998.959,VALID,0,VALID,91.3266,VALID,0,VALID,24.5599,VALID,10,VALID,0.0351563,
2009-04-09, 02:50:04,VALID,998.934,VALID,0,VALID,91.2503,VALID,0,VALID,24.5599,VALID,10,VALID,0,
2009-04-09, 02:51:04,VALID,998.88,VALID,0,VALID,91.3037,VALID,0,VALID,24.5404,VALID,10,VALID,0,
2009-04-09, 02:52:04,VALID,998.859,VALID,0,VALID,91.4105,VALID,0,VALID,24.5422,VALID,10,VALID,0.128516,
2009-04-09, 02:53:04,VALID,998.871,VALID,0,VALID,91.4944,VALID,0,VALID,24.5618,VALID,10,VALID,0.489844,
2009-04-09, 02:54:04,VALID,998.891,VALID,0,VALID,91.4181,VALID,0,VALID,24.5422,VALID,104,VALID,1.04531,
2009-04-09, 02:55:04,VALID,998.938,VALID,0,VALID,91.3113,VALID,0,VALID,24.5599,VALID,98,VALID,0.889453,
2009-04-09, 02:56:04,VALID,998.926,VALID,0,VALID,91.1358,VALID,0,VALID,24.5813,VALID,113,VALID,1.01953,
2009-04-09, 02:57:04,VALID,998.909,VALID,0,VALID,91.0977,VALID,0,VALID,24.5813,VALID,114,VALID,0.675,
2009-04-09, 02:58:04,VALID,998.899,VALID,0,VALID,91.1358,VALID,0,VALID,24.6008,VALID,114,VALID,0.486719,
2009-04-09, 02:59:04,VALID,998.885,VALID,0,VALID,91.1892,VALID,0,VALID,24.6008,VALID,114,VALID,0.224609,
2009-04-09, 03:00:04,VALID,998.865,VALID,0,VALID,91.2197,VALID,0,VALID,24.6008,VALID,114,VALID,0.221875,
2009-04-09, 03:01:04,VALID,998.867,VALID,0,VALID,91.2121,VALID,0,VALID,24.6008,VALID,113,VALID,0.376953,
2009-04-09, 03:02:04,VALID,998.833,VALID,0,VALID,91.174,VALID,0,VALID,24.5813,VALID,99,VALID,0.458984,
2009-04-09, 03:03:04,VALID,998.844,VALID,0,VALID,91.2579,VALID,0,VALID,24.6008,VALID,37,VALID,0.674219,
2009-04-09, 03:04:04,VALID,998.805,VALID,0,VALID,91.4486,VALID,0,VALID,24.6203,VALID,25,VALID,0.861328,
2009-04-09, 03:05:04,VALID,998.779,VALID,0,VALID,91.5402,VALID,0,VALID,24.6203,VALID,12,VALID,0.831641,
2009-04-09, 03:06:04,VALID,998.756,VALID,0,VALID,91.7462,VALID,0,VALID,24.6008,VALID,2,VALID,0.707422,
2009-04-09, 03:07:04,VALID,998.772,VALID,0,VALID,91.8377,VALID,0,VALID,24.5813,VALID,357,VALID,0.780078,
2009-04-09, 03:08:04,VALID,998.752,VALID,0,VALID,91.9293,VALID,0,VALID,24.6008,VALID,357,VALID,0.683984,
2009-04-09, 03:09:04,VALID,998.776,VALID,0,VALID,92.0209,VALID,0,VALID,24.5813,VALID,357,VALID,0.879297,
2009-04-09, 03:10:04,VALID,998.784,VALID,0,VALID,92.0285,VALID,0,VALID,24.5618,VALID,357,VALID,1.06719,
2009-04-09, 03:11:04,VALID,998.81,VALID,0,VALID,92.0285,VALID,0,VALID,24.5227,VALID,2,VALID,1.23086,
2009-04-09, 03:12:04,VALID,998.835,VALID,0,VALID,91.9598,VALID,0,VALID,24.4837,VALID,24,VALID,1.34727,
2009-04-09, 03:13:04,VALID,998.869,VALID,0,VALID,92.0971,VALID,0,VALID,24.4446,VALID,44,VALID,1.09727,
2009-04-09, 03:14:04,VALID,998.88,VALID,0,VALID,92.3413,VALID,0,VALID,24.4251,VALID,52,VALID,1.14063,
2009-04-09, 03:15:04,VALID,998.899,VALID,0,VALID,92.4176,VALID,0,VALID,24.4251,VALID,55,VALID,0.742188,
2009-04-09, 03:16:04,VALID,998.899,VALID,0,VALID,92.5168,VALID,0,VALID,24.4446,VALID,66,VALID,0.664063,
2009-04-09, 03:17:04,VALID,998.94,VALID,0,VALID,92.5549,VALID,0,VALID,24.4446,VALID,67,VALID,0.635547,
2009-04-09, 03:18:04,VALID,998.95,VALID,0,VALID,92.5397,VALID,0,VALID,24.4446,VALID,67,VALID,0.589063,
2009-04-09, 03:19:04,VALID,998.976,VALID,0,VALID,92.5473,VALID,0,VALID,24.4446,VALID,72,VALID,0.36875,
2009-04-09, 03:20:04,VALID,998.974,VALID,0,VALID,92.616,VALID,0,VALID,24.4428,VALID,72,VALID,0.568359,
2009-04-09, 03:21:04,VALID,998.992,VALID,0,VALID,92.5854,VALID,0,VALID,24.4642,VALID,72,VALID,0.330859,
2009-04-09, 03:22:04,VALID,999.005,VALID,0,VALID,92.6388,VALID,0,VALID,24.4642,VALID,72,VALID,0.522656,
2009-04-09, 03:23:04,VALID,999.022,VALID,0,VALID,92.6465,VALID,0,VALID,24.4446,VALID,72,VALID,0.439063,
2009-04-09, 03:24:04,VALID,999.024,VALID,0,VALID,92.6617,VALID,0,VALID,24.4446,VALID,72,VALID,0.276172,
2009-04-09, 03:25:04,VALID,999.035,VALID,0,VALID,92.6465,VALID,0,VALID,24.4642,VALID,72,VALID,0.383984,
2009-04-09, 03:26:04,VALID,999.046,VALID,0,VALID,92.6541,VALID,0,VALID,24.4446,VALID,72,VALID,0.260547,
2009-04-09, 03:27:04,VALID,999.018,VALID,0,VALID,92.6999,VALID,0,VALID,24.4446,VALID,72,VALID,0.188672,
2009-04-09, 03:28:04,VALID,999.031,VALID,0,VALID,92.6999,VALID,0,VALID,24.4251,VALID,72,VALID,0,
2009-04-09, 03:29:04,VALID,999.03,VALID,0,VALID,92.6236,VALID,0,VALID,24.4446,VALID,72,VALID,0,
2009-04-09, 03:30:04,VALID,999.032,VALID,0,VALID,92.6007,VALID,0,VALID,24.4251,VALID,72,VALID,0,
2009-04-09, 03:31:04,VALID,999.015,VALID,0,VALID,92.6388,VALID,0,VALID,24.3861,VALID,72,VALID,0,
2009-04-09, 03:32:04,VALID,999.047,VALID,0,VALID,92.6236,VALID,0,VALID,24.3861,VALID,72,VALID,0,
2009-04-09, 03:33:04,VALID,999.027,VALID,0,VALID,92.5931,VALID,0,VALID,24.3666,VALID,72,VALID,0,
2009-04-09, 03:34:04,VALID,999.002,VALID,0,VALID,92.6999,VALID,0,VALID,24.347,VALID,72,VALID,0,
2009-04-09, 03:35:04,VALID,998.98,VALID,0,VALID,92.7075,VALID,0,VALID,24.347,VALID,72,VALID,0,
2009-04-09, 03:36:04,VALID,998.953,VALID,0,VALID,92.6694,VALID,0,VALID,24.3489,VALID,72,VALID,0,
2009-04-09, 03:37:04,VALID,998.923,VALID,0,VALID,92.6541,VALID,0,VALID,24.3257,VALID,72,VALID,0,
2009-04-09, 03:38:04,VALID,998.884,VALID,0,VALID,92.677,VALID,0,VALID,24.347,VALID,72,VALID,0,
2009-04-09, 03:39:04,VALID,998.865,VALID,0,VALID,92.6236,VALID,0,VALID,24.3257,VALID,72,VALID,0,
2009-04-09, 03:40:04,VALID,998.807,VALID,0,VALID,92.5778,VALID,0,VALID,24.3257,VALID,72,VALID,0,
2009-04-09, 03:41:04,VALID,998.806,VALID,0,VALID,92.5549,VALID,0,VALID,24.3257,VALID,72,VALID,0.267578,
2009-04-09, 03:42:04,VALID,998.781,VALID,0,VALID,92.5626,VALID,0,VALID,24.3452,VALID,97,VALID,0.457031,
2009-04-09, 03:43:04,VALID,998.78,VALID,0,VALID,92.4939,VALID,0,VALID,24.3647,VALID,139,VALID,0.687891,
2009-04-09, 03:44:04,VALID,998.796,VALID,0,VALID,92.3794,VALID,0,VALID,24.3842,VALID,150,VALID,1.04609,
2009-04-09, 03:45:04,VALID,998.825,VALID,0,VALID,92.1353,VALID,0,VALID,24.4037,VALID,144,VALID,1.20859,
2009-04-09, 03:46:04,VALID,998.82,VALID,0,VALID,91.9674,VALID,0,VALID,24.4446,VALID,151,VALID,1.11094,
2009-04-09, 03:47:04,VALID,998.834,VALID,0,VALID,91.9293,VALID,0,VALID,24.4428,VALID,148,VALID,1.23398,